Location: Little Maitland River
(43.8022°N, 81.1549°W)
Time: 14:10:56
(UTC+00:00)

Cosmos 1726 Rocket - Pass Details

Date: 09 December 2025
Orbit: 554 x 663 km, 82.5° (Epoch: 19 January)

Event Time Altitude Azimuth Distance (km) Brightness Sun altitude
Exits shadow 10:14:08 35° 31° (NNE) 972 4.7 -26.7°
Maximum altitude 10:15:25 47° 78° (ENE) 797 4.4 -26.5°
Drops below altitude 10° 10:19:27 10° 152° (SSE) 1,896 6.5 -25.7°
Sets 10:21:40 0° 158° (SSE) 2,774 7.3 -25.3°
